| time (UTC) | temp F | wind direction | speed MPH | gust MPH | rain 1hr in | rain 24hr in | rain mn in | humidity % | barometer mb |
| 20260505023006 | 64 | 237 | 3.0 | 9.0 | 0.00 | 0.00 | 0.00 | 60 | 1002.3 |
| 20260505022548 | 64 | 210 | 3.0 | 11.0 | 0.00 | 0.00 | 0.00 | 59 | 1002.3 |
| 20260505022028 | 65 | 214 | 2.0 | 11.0 | 0.00 | 0.00 | 0.00 | 57 | 1002.3 |
| 20260505021511 | 65 | 232 | 2.0 | 11.0 | 0.00 | 0.00 | 0.00 | 55 | 1002.2 |
| 20260505021052 | 66 | 236 | 1.0 | 14.0 | 0.00 | 0.00 | 0.00 | 55 | 1002.3 |
| 20260505020531 | 66 | 227 | 7.0 | 16.0 | 0.00 | 0.00 | 0.00 | 53 | 1002.5 |
| 20260505020116 | 66 | 187 | 5.0 | 20.0 | 0.00 | 0.00 | 0.00 | 51 | 1002.5 |
| 20260505015538 | 66 | 243 | 3.0 | 20.0 | 0.00 | 0.00 | 0.00 | 50 | 1002.4 |
| 20260505015018 | 66 | 221 | 1.0 | 6.0 | 0.00 | 0.00 | 0.00 | 49 | 1002.3 |
| 20260505014610 | 66 | 219 | 0.0 | 5.0 | 0.00 | 0.00 | 0.00 | 49 | 1002.2 |
| 20260505014041 | 66 | 219 | 0.0 | 5.0 | 0.00 | 0.00 | 0.00 | 48 | 1002.1 |
| 20260505013521 | 66 | 216 | 0.0 | 4.0 | 0.00 | 0.00 | 0.00 | 48 | 1002.0 |
| 20260505013001 | 66 | 202 | 0.0 | 6.0 | 0.00 | 0.00 | 0.00 | 47 | 1002.1 |
| 20260505012546 | 66 | 200 | 1.0 | 6.0 | 0.00 | 0.00 | 0.00 | 47 | 1002.1 |
| 20260505012026 | 66 | 262 | 0.0 | 4.0 | 0.00 | 0.00 | 0.00 | 47 | 1002.1 |
| 20260505011505 | 66 | 262 | 0.0 | 4.0 | 0.00 | 0.00 | 0.00 | 46 | 1002.0 |
| 20260505011048 | 67 | 264 | 0.0 | 4.0 | 0.00 | 0.00 | 0.00 | 46 | 1002.0 |
| 20260505010528 | 67 | 264 | 0.0 | 4.0 | 0.00 | 0.00 | 0.00 | 45 | 1001.9 |
| 20260505010112 | 67 | 265 | 0.0 | 4.0 | 0.00 | 0.00 | 0.00 | 45 | 1002.0 |
| 20260505005534 | 67 | 265 | 0.0 | 5.0 | 0.00 | 0.00 | 0.00 | 44 | 1002.0 |
| 20260505005015 | 67 | 265 | 0.0 | 8.0 | 0.00 | 0.00 | 0.00 | 43 | 1002.0 |
| 20260505004600 | 67 | 249 | 1.0 | 8.0 | 0.00 | 0.00 | 0.00 | 43 | 1002.0 |
| 20260505004042 | 68 | 246 | 0.0 | 7.0 | 0.00 | 0.00 | 0.00 | 43 | 1002.0 |
| 20260505003518 | 68 | 246 | 2.0 | 8.0 | 0.00 | 0.00 | 0.00 | 42 | 1002.0 |
| 20260505003103 | 68 | 262 | 0.0 | 11.0 | 0.00 | 0.00 | 0.00 | 41 | 1002.0 |
| 20260505002543 | 68 | 246 | 2.0 | 11.0 | 0.00 | 0.00 | 0.00 | 41 | 1002.2 |
| 20260505002023 | 69 | 248 | 3.0 | 9.0 | 0.00 | 0.00 | 0.00 | 40 | 1002.3 |
| 20260505001503 | 69 | 225 | 4.0 | 9.0 | 0.00 | 0.00 | 0.00 | 39 | 1002.2 |
| 20260505001050 | 69 | 204 | 1.0 | 9.0 | 0.00 | 0.00 | 0.00 | 39 | 1002.3 |
| 20260505000526 | 69 | 253 | 4.0 | 9.0 | 0.00 | 0.00 | 0.00 | 38 | 1002.4 |
| 20260505000118 | 70 | 250 | 3.0 | 12.0 | 0.00 | 0.00 | 0.00 | 37 | 1002.3 |
| 20260504235534 | 70 | 230 | 5.0 | 12.0 | 0.00 | 0.00 | 0.00 | 37 | 1002.3 |
| 20260504235013 | 70 | 263 | 5.0 | 14.0 | 0.00 | 0.00 | 0.00 | 37 | 1002.3 |
| 20260504234556 | 70 | 258 | 4.0 | 14.0 | 0.00 | 0.00 | 0.00 | 37 | 1002.3 |
| 20260504234036 | 70 | 281 | 6.0 | 12.0 | 0.00 | 0.00 | 0.00 | 36 | 1002.4 |
| 20260504233517 | 71 | 251 | 5.0 | 14.0 | 0.00 | 0.00 | 0.00 | 37 | 1002.4 |
| 20260504233102 | 71 | 247 | 4.0 | 14.0 | 0.00 | 0.00 | 0.00 | 37 | 1002.4 |
| 20260504232539 | 71 | 243 | 5.0 | 11.0 | 0.00 | 0.00 | 0.00 | 37 | 1002.5 |
| 20260504232019 | 71 | 262 | 3.0 | 10.0 | 0.00 | 0.00 | 0.00 | 38 | 1002.4 |
| 20260504231602 | 71 | 241 | 3.0 | 10.0 | 0.00 | 0.00 | 0.00 | 37 | 1002.4 |
| 20260504231041 | 72 | 224 | 5.0 | 14.0 | 0.00 | 0.01 | 0.00 | 36 | 1002.4 |
| 20260504230520 | 72 | 250 | 7.0 | 14.0 | 0.00 | 0.01 | 0.00 | 36 | 1002.4 |
| 20260504230109 | 72 | 260 | 4.0 | 11.0 | 0.00 | 0.01 | 0.00 | 38 | 1002.4 |
| 20260504225526 | 72 | 246 | 5.0 | 15.0 | 0.00 | 0.01 | 0.00 | 38 | 1002.4 |
| 20260504225010 | 72 | 233 | 5.0 | 15.0 | 0.00 | 0.01 | 0.00 | 40 | 1002.5 |
| 20260504224550 | 72 | 232 | 3.0 | 13.0 | 0.00 | 0.01 | 0.00 | 41 | 1002.4 |
| 20260504224030 | 72 | 256 | 4.0 | 14.0 | 0.00 | 0.01 | 0.00 | 41 | 1002.4 |
| 20260504223510 | 72 | 266 | 4.0 | 14.0 | 0.00 | 0.01 | 0.00 | 41 | 1002.5 |
| 20260504223101 | 72 | 229 | 5.0 | 14.0 | 0.00 | 0.01 | 0.00 | 42 | 1002.6 |
| 20260504222535 | 72 | 245 | 8.0 | 14.0 | 0.00 | 0.01 | 0.00 | 42 | 1002.7 |
| 20260504222014 | 72 | 274 | 6.0 | 14.0 | 0.00 | 0.01 | 0.00 | 43 | 1002.6 |
| 20260504221605 | 71 | 214 | 6.0 | 14.0 | 0.00 | 0.01 | 0.00 | 43 | 1002.6 |
| 20260504221039 | 71 | 245 | 5.0 | 15.0 | 0.00 | 0.01 | 0.00 | 43 | 1002.6 |
| 20260504220520 | 71 | 247 | 2.0 | 15.0 | 0.00 | 0.01 | 0.00 | 42 | 1002.5 |
| 20260504220104 | 71 | 202 | 5.0 | 15.0 | 0.00 | 0.01 | 0.00 | 43 | 1002.7 |
| 20260504215524 | 72 | 214 | 7.0 | 15.0 | 0.00 | 0.01 | 0.00 | 42 | 1002.8 |
| 20260504215004 | 72 | 250 | 5.0 | 16.0 | 0.00 | 0.01 | 0.00 | 42 | 1002.7 |
| 20260504214547 | 72 | 250 | 7.0 | 16.0 | 0.00 | 0.01 | 0.00 | 42 | 1002.7 |
| 20260504214028 | 72 | 244 | 5.0 | 14.0 | 0.00 | 0.01 | 0.00 | 42 | 1002.7 |
| 20260504213508 | 72 | 219 | 4.0 | 22.0 | 0.00 | 0.01 | 0.00 | 42 | 1002.7 |
| 20260504213051 | 72 | 275 | 7.0 | 22.0 | 0.00 | 0.01 | 0.00 | 41 | 1002.7 |
| 20260504212534 | 72 | 240 | 7.0 | 15.0 | 0.00 | 0.01 | 0.00 | 40 | 1002.6 |
| 20260504212011 | 72 | 234 | 5.0 | 12.0 | 0.00 | 0.01 | 0.00 | 41 | 1002.6 |
| 20260504211603 | 72 | 216 | 5.0 | 20.0 | 0.00 | 0.01 | 0.00 | 41 | 1002.6 |
| 20260504211035 | 72 | 260 | 4.0 | 18.0 | 0.00 | 0.01 | 0.00 | 42 | 1002.5 |
| 20260504210515 | 72 | 258 | 6.0 | 18.0 | 0.00 | 0.01 | 0.00 | 41 | 1002.6 |
| 20260504210059 | 72 | 246 | 6.0 | 16.0 | 0.00 | 0.01 | 0.00 | 40 | 1002.5 |
| 20260504205523 | 72 | 248 | 6.0 | 16.0 | 0.00 | 0.01 | 0.00 | 41 | 1002.5 |
| 20260504205106 | 72 | 254 | 4.0 | 12.0 | 0.00 | 0.01 | 0.00 | 41 | 1002.5 |
| 20260504204544 | 72 | 262 | 4.0 | 16.0 | 0.00 | 0.01 | 0.00 | 41 | 1002.5 |
| 20260504204024 | 72 | 216 | 6.0 | 14.0 | 0.00 | 0.01 | 0.00 | 41 | 1002.6 |
| 20260504203504 | 72 | 238 | 4.0 | 20.0 | 0.00 | 0.01 | 0.00 | 41 | 1002.6 |
| 20260504203059 | 71 | 223 | 6.0 | 24.0 | 0.00 | 0.01 | 0.00 | 40 | 1002.8 |
| 20260504202527 | 71 | 249 | 5.0 | 24.0 | 0.00 | 0.01 | 0.00 | 41 | 1002.8 |
| 20260504202012 | 72 | 229 | 6.0 | 19.0 | 0.00 | 0.01 | 0.00 | 41 | 1002.7 |
| 20260504201552 | 72 | 269 | 4.0 | 19.0 | 0.00 | 0.01 | 0.00 | 41 | 1002.9 |
| 20260504201031 | 71 | 273 | 4.0 | 16.0 | 0.00 | 0.01 | 0.00 | 41 | 1002.9 |
| 20260504200511 | 71 | 204 | 6.0 | 23.0 | 0.00 | 0.01 | 0.00 | 41 | 1003.0 |
| 20260504200056 | 71 | 252 | 9.0 | 23.0 | 0.00 | 0.01 | 0.00 | 41 | 1002.9 |
| 20260504195517 | 71 | 250 | 7.0 | 20.0 | 0.00 | 0.01 | 0.00 | 41 | 1003.0 |
| 20260504195103 | 71 | 219 | 6.0 | 22.0 | 0.00 | 0.01 | 0.00 | 42 | 1003.0 |
| 20260504194542 | 71 | 249 | 9.0 | 22.0 | 0.00 | 0.01 | 0.00 | 41 | 1003.2 |
| 20260504194022 | 71 | 275 | 8.0 | 16.0 | 0.00 | 0.01 | 0.00 | 42 | 1003.1 |
| 20260504193606 | 71 | 258 | 5.0 | 15.0 | 0.00 | 0.01 | 0.00 | 44 | 1003.4 |
| 20260504193044 | 71 | 204 | 6.0 | 16.0 | 0.00 | 0.01 | 0.00 | 44 | 1003.5 |
| 20260504192524 | 71 | 256 | 7.0 | 16.0 | 0.00 | 0.01 | 0.00 | 44 | 1003.6 |
| 20260504192004 | 71 | 217 | 5.0 | 11.0 | 0.00 | 0.01 | 0.00 | 46 | 1003.7 |
| 20260504191550 | 70 | 230 | 4.0 | 18.0 | 0.00 | 0.01 | 0.00 | 47 | 1003.7 |
| 20260504191028 | 70 | 196 | 4.0 | 18.0 | 0.00 | 0.01 | 0.00 | 48 | 1003.8 |
| 20260504190515 | 69 | 263 | 6.0 | 24.0 | 0.00 | 0.01 | 0.00 | 48 | 1003.9 |
| 20260504185514 | 69 | 169 | 8.0 | 15.0 | 0.00 | 0.01 | 0.00 | 48 | 1004.1 |
| 20260504185058 | 69 | 241 | 5.0 | 15.0 | 0.00 | 0.01 | 0.00 | 48 | 1004.2 |
| 20260504184538 | 69 | 228 | 4.0 | 16.0 | 0.00 | 0.01 | 0.00 | 50 | 1004.2 |
| 20260504184020 | 69 | 270 | 6.0 | 19.0 | 0.00 | 0.01 | 0.00 | 50 | 1004.3 |
| 20260504183604 | 68 | 216 | 5.0 | 11.0 | 0.00 | 0.01 | 0.00 | 50 | 1004.3 |
| 20260504183042 | 68 | 227 | 4.0 | 13.0 | 0.00 | 0.01 | 0.00 | 52 | 1004.4 |
| 20260504182522 | 68 | 182 | 6.0 | 16.0 | 0.00 | 0.01 | 0.00 | 51 | 1004.4 |
| 20260504182002 | 67 | 201 | 6.0 | 16.0 | 0.00 | 0.01 | 0.00 | 51 | 1004.6 |
| 20260504181552 | 67 | 205 | 4.0 | 13.0 | 0.00 | 0.01 | 0.00 | 53 | 1004.7 |
| 20260504181025 | 67 | 235 | 4.0 | 18.0 | 0.00 | 0.01 | 0.00 | 53 | 1004.8 |
| 20260504180504 | 67 | 272 | 9.0 | 18.0 | 0.00 | 0.01 | 0.00 | 51 | 1004.9 |
| 20260504180048 | 67 | 231 | 4.0 | 14.0 | 0.00 | 0.01 | 0.00 | 53 | 1004.9 |
| 20260504175516 | 66 | 211 | 7.0 | 14.0 | 0.00 | 0.01 | 0.00 | 52 | 1004.9 |
| 20260504175055 | 66 | 212 | 4.0 | 14.0 | 0.00 | 0.01 | 0.00 | 53 | 1004.9 |
| 20260504174535 | 66 | 177 | 6.0 | 14.0 | 0.00 | 0.01 | 0.00 | 53 | 1004.9 |
| 20260504174015 | 65 | 217 | 3.0 | 13.0 | 0.00 | 0.01 | 0.00 | 55 | 1004.9 |
| 20260504173559 | 65 | 217 | 6.0 | 18.0 | 0.00 | 0.01 | 0.00 | 54 | 1005.2 |
| 20260504173038 | 65 | 266 | 4.0 | 18.0 | 0.00 | 0.01 | 0.00 | 54 | 1005.2 |
| 20260504172518 | 65 | 258 | 5.0 | 14.0 | 0.00 | 0.01 | 0.00 | 54 | 1005.2 |
| 20260504172102 | 65 | 206 | 7.0 | 14.0 | 0.00 | 0.01 | 0.00 | 54 | 1005.3 |
| 20260504171542 | 64 | 266 | 4.0 | 14.0 | 0.00 | 0.01 | 0.00 | 55 | 1005.3 |
| 20260504171023 | 64 | 255 | 4.0 | 14.0 | 0.00 | 0.01 | 0.00 | 55 | 1005.2 |
| 20260504170503 | 64 | 233 | 4.0 | 14.0 | 0.00 | 0.01 | 0.00 | 54 | 1005.4 |
| 20260504151015 | 61 | 250 | 7.0 | 24.0 | 0.00 | 0.01 | 0.00 | 55 | 1006.0 |
| 20260504150600 | 61 | 208 | 8.0 | 24.0 | 0.00 | 0.01 | 0.00 | 55 | 1006.1 |
| 20260504141010 | 59 | 178 | 9.0 | 22.0 | 0.00 | 0.01 | 0.00 | 56 | 1006.2 |
| 20260504140554 | 59 | 269 | 6.0 | 16.0 | 0.00 | 0.01 | 0.00 | 57 | 1006.2 |
| 20260504130550 | 57 | 239 | 4.0 | 19.0 | 0.00 | 0.01 | 0.00 | 59 | 1006.5 |
| 20260504110531 | 53 | 277 | 4.0 | 10.0 | 0.00 | 0.01 | 0.00 | 62 | 1006.9 |
| 20260504110115 | 53 | 239 | 3.0 | 9.0 | 0.00 | 0.01 | 0.00 | 62 | 1006.8 |
| 20260504100522 | 53 | 249 | 5.0 | 12.0 | 0.00 | 0.01 | 0.00 | 59 | 1006.7 |
| 20260504100108 | 53 | 254 | 5.0 | 18.0 | 0.00 | 0.01 | 0.00 | 60 | 1006.6 |
| 20260504090105 | 53 | 214 | 3.0 | 15.0 | 0.00 | 0.01 | 0.00 | 59 | 1006.8 |
| 20260504081554 | 52 | 276 | 3.0 | 9.0 | 0.00 | 0.01 | 0.00 | 63 | 1007.1 |
| 20260504081035 | 51 | 240 | 3.0 | 13.0 | 0.00 | 0.01 | 0.00 | 64 | 1007.1 |
| 20260504080514 | 51 | 239 | 4.0 | 8.0 | 0.00 | 0.01 | 0.00 | 64 | 1007.2 |
| 20260504050502 | 55 | 250 | 3.0 | 13.0 | 0.00 | 0.01 | 0.00 | 58 | 1008.6 |
| 20260504045506 | 56 | 227 | 5.0 | 13.0 | 0.00 | 0.01 | 0.00 | 56 | 1008.6 |
| 20260504045051 | 56 | 233 | 5.0 | 11.0 | 0.00 | 0.01 | 0.00 | 56 | 1008.7 |
| 20260504044532 | 56 | 245 | 2.0 | 15.0 | 0.00 | 0.01 | 0.00 | 55 | 1008.7 |
| 20260504044012 | 56 | 218 | 7.0 | 16.0 | 0.00 | 0.01 | 0.00 | 54 | 1008.8 |
| 20260504043555 | 56 | 262 | 5.0 | 16.0 | 0.00 | 0.01 | 0.00 | 54 | 1008.8 |
| 20260504043035 | 56 | 256 | 7.0 | 16.0 | 0.00 | 0.01 | 0.00 | 53 | 1008.8 |
| 20260504042514 | 56 | 234 | 6.0 | 13.0 | 0.00 | 0.01 | 0.00 | 53 | 1008.9 |
| 20260504042059 | 56 | 266 | 6.0 | 13.0 | 0.00 | 0.01 | 0.00 | 52 | 1008.9 |
| 20260504041538 | 56 | 233 | 5.0 | 12.0 | 0.00 | 0.01 | 0.00 | 52 | 1009.1 |
| 20260504041017 | 56 | 251 | 7.0 | 12.0 | 0.00 | 0.01 | 0.01 | 51 | 1009.0 |
| 20260504040600 | 57 | 263 | 3.0 | 14.0 | 0.00 | 0.01 | 0.01 | 52 | 1009.1 |
| 20260504040047 | 57 | 243 | 6.0 | 12.0 | 0.00 | 0.01 | 0.01 | 51 | 1009.0 |
| 20260504035505 | 57 | 232 | 5.0 | 16.0 | 0.00 | 0.01 | 0.01 | 51 | 1009.0 |
| 20260504035047 | 57 | 241 | 8.0 | 16.0 | 0.00 | 0.01 | 0.01 | 51 | 1009.0 |
| 20260504034526 | 57 | 246 | 7.0 | 18.0 | 0.00 | 0.01 | 0.01 | 51 | 1009.0 |
| 20260504034007 | 56 | 258 | 8.0 | 18.0 | 0.00 | 0.01 | 0.01 | 51 | 1008.9 |
| 20260504033550 | 56 | 197 | 5.0 | 14.0 | 0.00 | 0.01 | 0.01 | 51 | 1008.8 |
| 20260504033037 | 56 | 210 | 8.0 | 14.0 | 0.00 | 0.01 | 0.01 | 52 | 1009.0 |
| 20260504032516 | 56 | 238 | 4.0 | 10.0 | 0.00 | 0.01 | 0.01 | 51 | 1009.1 |
| 20260504032054 | 56 | 247 | 4.0 | 12.0 | 0.00 | 0.01 | 0.01 | 52 | 1009.1 |
| 20260504031535 | 56 | 255 | 4.0 | 12.0 | 0.00 | 0.01 | 0.01 | 52 | 1009.2 |
| 20260504031013 | 56 | 243 | 5.0 | 23.0 | 0.00 | 0.01 | 0.01 | 52 | 1009.2 |
| 20260504030556 | 56 | 237 | 5.0 | 23.0 | 0.00 | 0.01 | 0.01 | 51 | 1009.2 |
| 20260504030020 | 56 | 227 | 4.0 | 15.0 | 0.00 | 0.01 | 0.01 | 52 | 1009.2 |
| 20260504025601 | 56 | 229 | 7.0 | 15.0 | 0.00 | 0.01 | 0.01 | 52 | 1009.2 |
| 20260504025042 | 56 | 248 | 4.0 | 16.0 | 0.00 | 0.01 | 0.01 | 52 | 1009.2 |
| 20260504024522 | 56 | 250 | 4.0 | 16.0 | 0.00 | 0.01 | 0.01 | 52 | 1009.2 |
| 20260504024002 | 56 | 241 | 5.0 | 14.0 | 0.00 | 0.01 | 0.01 | 52 | 1009.4 |
| 20260504023545 | 56 | 249 | 6.0 | 16.0 | 0.00 | 0.01 | 0.01 | 52 | 1009.3 |
| 20260504023026 | 56 | 249 | 5.0 | 16.0 | 0.00 | 0.01 | 0.01 | 52 | 1009.4 |